Regional Weather Roundup
Issued by NWS Sioux Falls, SD

Home | Current Version | Previous Version | Graphics & Text | Print | Product List | Glossary Off
Versions: 1 2 3 4 5 6 7 8 9 10 11 12 13 14 15 16 17 18 19 20 21 22 23 24 25 26 27 28 29 30 31 32 33 34 35 36 37 38 39 40 41 42 43 44 45 46 47 48 49 50

000
ASUS43 KFSD 291210
RWRFSD

WEATHER ROUNDUP FOR SE SOUTH DAKOTA/SW MINNESOTA/NW IOWA
NATIONAL WEATHER SERVICE SIOUX FALLS SD
600 AM CST THU JAN 29 2015

NOTE: "FAIR" INDICATES FEW OR NO CLOUDS BELOW 12,000 FEET WITH NO
SIGNIFICANT WEATHER AND OR OBSTRUCTIONS TO VISIBILITY.


SDZ038>040-050-052>070-291300-
SOUTHEAST SOUTH DAKOTA

CITY           SKY/WX    TMP DP  RH WIND       PRES   REMARKS
CHAMBERLAIN    CLOUDY    33  28  80 NW15      30.34R WCI  23
6HR MIN TEMP:  32; 6HR MAX TEMP:  35;

HURON          CLOUDY    32  26  78 N21G29    30.30R WCI  20
6HR MIN TEMP:  32; 6HR MAX TEMP:  33;

MADISON        CLOUDY    28  28 100 N23G29    30.23R WCI  14
MITCHELL       CLOUDY    34  28  79 NW20G30   30.31R WCI  23
6HR MIN TEMP:  34; 6HR MAX TEMP:  35;

SIOUX FALLS    CLOUDY    31  25  78 N25G36    30.21R WCI  17
6HR MIN TEMP:  31; 6HR MAX TEMP:  34; 6HR PCP: TRACE;

WINNER         CLOUDY    36  26  67 NW18      30.35R
YANKTON        CLOUDY    36  28  75 NW24G36   30.27R
$$

MNZ071-072-080-081-089-090-097-098-291300-
SOUTHWEST MINNESOTA

CITY           SKY/WX    TMP DP  RH WIND       PRES   REMARKS
FAIRMONT       CLOUDY    30  25  80 NW31G39   30.06R WCI  15
JACKSON        CLOUDY    32  27  80 NW31G46   30.10R WCI  17
LUVERNE        CLOUDY    32  28  86 N22G30    30.19R WCI  19
MARSHALL       CLOUDY    28  21  74 N28G33    30.20R WCI  13
6HR MIN TEMP:  28; 6HR MAX TEMP:  34;

MONTEVIDEO     CLOUDY    28  27  93 N21G29    30.19R WCI  15
PIPESTONE      CLOUDY    28  25  86 N21G32    30.18R WCI  15
REDWOOD FALLS  CLOUDY    30  24  78 N28G39    30.14R WCI  15
TRACY          CLOUDY    30  27  90 NW23G32   30.17R WCI  16
WINDOM         CLOUDY    30  27  86 NW30G39   30.11R WCI  15
WORTHINGTON    CLOUDY   N/A N/A N/A N33G41    30.15R
$$

IAZ001>003-012>014-020>022-031-032-NEZ013-014-SDZ071-291300-
NORTHWEST IOWA

CITY           SKY/WX    TMP DP  RH WIND       PRES   REMARKS
CHEROKEE       CLOUDY    33  30  88 NW21G36   30.16R WCI  21
DENISON        CLOUDY    34  32  93 NW20G28   30.13R WCI  22
ESTHERVILLE    CLOUDY    30  26  85 NW29G41   30.10R WCI  15
LE MARS        CLOUDY    34  28  80 NW22G28   30.21R WCI  22
ORANGE CITY    CLOUDY    34  28  80 NW14G28   30.18R WCI  24
SHELDON        CLOUDY    32  30  93 NW26G35   30.15R WCI  18
SIOUX CITY     CLOUDY    34  27  75 NW32G41   30.20R WCI  20
6HR MIN TEMP:  34; 6HR MAX TEMP:  37; 6HR PCP: TRACE;

SPENCER        CLOUDY    33  26  75 NW33G41   30.13R WCI  18
6HR MIN TEMP:  33; 6HR MAX TEMP:  35; 6HR PCP: TRACE;

STORM LAKE     CLOUDY    32  30  93 NW30G37   30.12R WCI  18
$$

ABBREVIATIONS USED IN REMARKS
   TC - TEMPERATURE IN CELSIUS
  WCI - WIND CHILL INDEX
   HX - HEAT INDEX
  VSB - VISIBILITY



USA.gov is the U.S. government's official web portal to all federal, state and local government web resources and services.